Regional Weather Roundup
Issued by NWS

Home | Current Version | Previous Version | Text Only | Print | Product List | Glossary Off
Versions: 1 2 3 4 5 6 7 8 9 10 11 12 13 14 15 16 17 18 19 20 21 22 23 24 25 26 27 28 29 30 31 32 33 34 35 36 37 38 39 40 41 42 43 44 45 46 47 48 49 50

000
ASUS43 KTOP 200208
RWRKS

WEATHER ROUNDUP FOR KANSAS
NATIONAL WEATHER SERVICE GOODLAND KS
900 PM CDT TUE SEP 19 2017

NOTE:  "FAIR" INDICATES FEW OR NO CLOUDS BELOW 12,000 FEET WITH NO
SIGNIFICANT WEATHER AND/OR OBSTRUCTIONS TO VISIBILITY.

KSZ001>006-013>018-027>032-041>047-200300-
NORTHWEST KANSAS

CITY           SKY/WX    TMP DP  RH WIND       PRES   REMARKS
GOODLAND       CLOUDY    70  26  19 SW3       29.60R
HAYS           CLOUDY    84  37  18 S15       29.55R
HILL CITY      CLOUDY    81  35  19 S8        29.53R
RUSSELL        PTCLDY    87  59  38 S23G30    29.54R
$$

KSZ061>065-074>080-084>089-200300-
SOUTHWEST KANSAS

CITY           SKY/WX    TMP DP  RH WIND       PRES   REMARKS
DODGE CITY     CLOUDY    79  33  19 S10       29.61R
ELKHART          N/A     77  37  23 S12         N/A
GARDEN CITY    CLOUDY    72  36  26 S6        29.60R
GREAT BEND     CLOUDY    86  63  45 S24G32    29.57R
LIBERAL        CLOUDY    75  42  30 S13       29.64R
PRATT          CLEAR     85  59  40 S21G29    29.62R
$$

KSZ066>073-081>083-090>101-200300-
SOUTHEAST KANSAS

CITY           SKY/WX    TMP DP  RH WIND       PRES   REMARKS
CHANUTE        CLEAR     80  70  71 SE15      29.75R
COFFEYVILLE    CLEAR     81  70  69 S14       29.75R
HUTCHINSON     CLEAR     87  68  52 S21       29.61R
MEDICINE LODGE   N/A     85  62  46 S14G20    29.62R
NEWTON           N/A     84  68  58 S16       29.66R
WICHITA INTL   PTCLDY    85  68  56 S15       29.65R
WICHITA JABRA  CLEAR     84  70  62 S16G26    29.66R
WICHITA MCCONL CLEAR     85  66  53 S16       29.66R
WINFIELD       CLEAR     83  72  69 SE16      29.69R
$$

KSZ007>012-019>026-033>040-048>060-102>105-200300-
NORTHEAST KANSAS

CITY           SKY/WX    TMP DP  RH WIND       PRES   REMARKS
CONCORDIA      CLOUDY    85  67  54 S16       29.54R
EMPORIA        CLEAR     80  71  74 S23G31    29.67F
LAWRENCE       CLEAR     79  69  71 SE15      29.70R
MANHATTAN      CLEAR     84  73  69 S23G33    29.60R
MARYSVILLE     CLOUDY    82  72  69 SE20G26   29.59R
OLATHE IND     CLEAR     79  68  69 S15       29.73R
OLATHE EXE     CLEAR     77  70  79 S15G24    29.73S
SALINA         CLOUDY    89  65  44 S15G24    29.57R
TOPEKA BILLARD CLEAR     81  72  74 SE14      29.67R
TOPEKA FORBES  CLEAR     81  72  74 SE14      29.68R
$$




USA.gov is the U.S. government's official web portal to all federal, state and local government web resources and services.